Time,TemperatureF,DewpointF,PressureIn,WindDirection,WindDirectionDegrees,WindSpeedMPH,WindSpeedGustMPH,Humidity,HourlyPrecipIn,Conditions,Clouds,dailyrainin,SoftwareType,DateUTC
2013-05-17 00:03:00,68.0,41.0,-100.00,ESE,105,16.0,24.0,37,0.00,,,0.00,,2013-05-17 05:03:00,
2013-05-17 00:14:00,67.0,41.0,-100.00,East,95,14.0,18.0,37,0.00,,,0.00,,2013-05-17 05:14:00,
2013-05-17 00:22:00,67.0,41.0,-100.00,ESE,105,14.0,22.0,37,0.00,,,0.00,,2013-05-17 05:22:00,
2013-05-17 00:32:00,67.0,41.0,-100.00,East,100,12.0,19.0,37,0.00,,,0.00,,2013-05-17 05:32:00,
2013-05-17 00:42:00,67.0,41.0,-100.00,ESE,105,15.0,22.0,37,0.00,,,0.00,,2013-05-17 05:42:00,
2013-05-17 00:52:00,67.0,41.0,-100.00,ESE,110,14.0,22.0,37,0.00,,,0.00,,2013-05-17 05:52:00,
2013-05-17 01:02:00,67.0,41.0,-100.00,ESE,105,16.0,21.0,37,0.00,,,0.00,,2013-05-17 06:02:00,
2013-05-17 01:11:00,67.0,41.0,-100.00,ESE,105,16.0,21.0,37,0.00,,,0.00,,2013-05-17 06:11:00,
2013-05-17 01:21:00,66.0,39.0,-100.00,ESE,105,15.0,21.0,37,0.00,,,0.00,,2013-05-17 06:21:00,
2013-05-17 01:32:00,66.0,39.0,-100.00,ESE,110,14.0,23.0,37,0.00,,,0.00,,2013-05-17 06:32:00,
2013-05-17 01:42:00,66.0,39.0,-100.00,ESE,110,14.0,24.0,37,0.00,,,0.00,,2013-05-17 06:42:00,
2013-05-17 01:51:00,66.0,39.0,-100.00,ESE,105,14.0,22.0,37,0.00,,,0.00,,2013-05-17 06:51:00,
2013-05-17 02:02:00,66.0,39.0,-100.00,ESE,110,14.0,22.0,37,0.00,,,0.00,,2013-05-17 07:02:00,
2013-05-17 02:11:00,66.0,39.0,-100.00,ESE,110,14.0,21.0,37,0.00,,,0.00,,2013-05-17 07:11:00,
2013-05-17 02:21:00,66.0,39.0,-100.00,ESE,105,16.0,22.0,37,0.00,,,0.00,,2013-05-17 07:21:00,
2013-05-17 02:32:00,66.0,39.0,-100.00,ESE,110,14.0,19.0,37,0.00,,,0.00,,2013-05-17 07:32:00,
2013-05-17 02:43:00,65.0,39.0,-100.00,ESE,120,11.0,16.0,37,0.00,,,0.00,,2013-05-17 07:43:00,
2013-05-17 02:53:00,65.0,39.0,-100.00,ESE,110,15.0,19.0,37,0.00,,,0.00,,2013-05-17 07:53:00,
2013-05-17 03:02:00,65.0,39.0,-100.00,ESE,105,13.0,20.0,37,0.00,,,0.00,,2013-05-17 08:02:00,
2013-05-17 03:12:00,65.0,39.0,-100.00,ESE,110,13.0,19.0,37,0.00,,,0.00,,2013-05-17 08:12:00,
2013-05-17 03:22:00,65.0,39.0,-100.00,ESE,105,11.0,20.0,37,0.00,,,0.00,,2013-05-17 08:22:00,
2013-05-17 03:33:00,64.0,39.0,-100.00,ESE,105,11.0,18.0,38,0.00,,,0.00,,2013-05-17 08:33:00,
2013-05-17 03:42:00,64.0,39.0,-100.00,ESE,115,12.0,17.0,38,0.00,,,0.00,,2013-05-17 08:42:00,
2013-05-17 03:51:00,64.0,39.0,-100.00,ESE,115,12.0,21.0,39,0.00,,,0.00,,2013-05-17 08:51:00,
2013-05-17 04:02:00,64.0,39.0,-100.00,ESE,115,12.0,20.0,39,0.00,,,0.00,,2013-05-17 09:02:00,
2013-05-17 04:12:00,63.0,39.0,-100.00,ESE,120,12.0,15.0,40,0.00,,,0.00,,2013-05-17 09:12:00,
2013-05-17 04:22:00,63.0,39.0,-100.00,ESE,110,11.0,20.0,41,0.00,,,0.00,,2013-05-17 09:22:00,
2013-05-17 04:33:00,62.0,39.0,-100.00,ESE,110,12.0,16.0,42,0.00,,,0.00,,2013-05-17 09:33:00,
2013-05-17 04:42:00,62.0,39.0,-100.00,ESE,105,11.0,16.0,43,0.00,,,0.00,,2013-05-17 09:42:00,
2013-05-17 04:53:00,61.0,39.0,-100.00,East,95,9.0,14.0,44,0.00,,,0.00,,2013-05-17 09:53:00,
2013-05-17 05:03:00,60.0,39.0,-100.00,East,90,8.0,14.0,46,0.00,,,0.00,,2013-05-17 10:03:00,
2013-05-17 05:12:00,60.0,41.0,-100.00,East,90,9.0,12.0,48,0.00,,,0.00,,2013-05-17 10:12:00,
2013-05-17 05:23:00,60.0,41.0,-100.00,East,95,9.0,13.0,49,0.00,,,0.00,,2013-05-17 10:23:00,
2013-05-17 05:33:00,60.0,41.0,-100.00,East,95,9.0,15.0,51,0.00,,,0.00,,2013-05-17 10:33:00,
2013-05-17 05:42:00,60.0,43.0,-100.00,ESE,105,10.0,14.0,52,0.00,,,0.00,,2013-05-17 10:42:00,
2013-05-17 05:53:00,60.0,43.0,-100.00,East,100,11.0,14.0,52,0.00,,,0.00,,2013-05-17 10:53:00,
2013-05-17 06:02:00,60.0,43.0,-100.00,East,100,9.0,14.0,52,0.00,,,0.00,,2013-05-17 11:02:00,
2013-05-17 06:12:00,60.0,43.0,-100.00,East,85,9.0,12.0,53,0.00,,,0.00,,2013-05-17 11:12:00,
2013-05-17 06:22:00,60.0,43.0,-100.00,East,90,9.0,13.0,53,0.00,,,0.00,,2013-05-17 11:22:00,
2013-05-17 06:34:00,60.0,43.0,-100.00,East,95,8.0,12.0,53,0.00,,,0.00,,2013-05-17 11:34:00,
2013-05-17 06:42:00,60.0,45.0,-100.00,East,95,9.0,12.0,54,0.00,,,0.00,,2013-05-17 11:42:00,
2013-05-17 06:52:00,61.0,45.0,-100.00,East,95,9.0,13.0,54,0.00,,,0.00,,2013-05-17 11:52:00,
2013-05-17 07:03:00,61.0,45.0,-100.00,East,100,9.0,14.0,55,0.00,,,0.00,,2013-05-17 12:03:00,
2013-05-17 07:12:00,61.0,45.0,-100.00,East,100,9.0,12.0,55,0.00,,,0.00,,2013-05-17 12:12:00,
2013-05-17 07:23:00,61.0,46.0,-100.00,East,100,9.0,14.0,57,0.00,,,0.00,,2013-05-17 12:23:00,
2013-05-17 07:32:00,61.0,46.0,-100.00,East,100,9.0,14.0,59,0.00,,,0.00,,2013-05-17 12:32:00,
2013-05-17 07:43:00,61.0,48.0,-100.00,ESE,110,12.0,14.0,61,0.00,,,0.00,,2013-05-17 12:43:00,
2013-05-17 07:53:00,61.0,52.0,-100.00,SE,125,12.0,18.0,70,0.00,,,0.00,,2013-05-17 12:53:00,
2013-05-17 08:03:00,60.0,55.0,-100.00,ESE,115,13.0,21.0,88,0.00,,,0.00,,2013-05-17 13:03:00,
2013-05-17 08:12:00,59.0,57.0,-100.00,ESE,110,17.0,20.0,96,0.00,,,0.00,,2013-05-17 13:12:00,
2013-05-17 08:42:00,58.0,57.0,-100.00,East,100,11.0,18.0,99,0.00,,,0.00,,2013-05-17 13:42:00,
2013-05-17 08:52:00,58.0,57.0,-100.00,East,100,14.0,20.0,99,0.00,,,0.00,,2013-05-17 13:52:00,
2013-05-17 09:02:00,58.0,57.0,-100.00,East,100,12.0,16.0,99,0.00,,,0.00,,2013-05-17 14:02:00,
2013-05-17 09:13:00,58.0,57.0,-100.00,ESE,110,12.0,16.0,99,0.00,,,0.00,,2013-05-17 14:13:00,
2013-05-17 10:14:00,59.0,59.0,-100.00,ESE,110,12.0,16.0,99,0.00,,,0.00,,2013-05-17 15:14:00,
2013-05-17 10:37:00,59.0,59.0,-100.00,ESE,105,14.0,19.0,99,0.00,,,0.00,,2013-05-17 15:37:00,
2013-05-17 10:47:00,59.0,59.0,-100.00,ESE,110,12.0,20.0,99,0.00,,,0.00,,2013-05-17 15:47:00,
2013-05-17 10:56:00,59.0,59.0,-100.00,ESE,105,13.0,20.0,99,0.00,,,0.00,,2013-05-17 15:56:00,
2013-05-17 11:07:00,59.0,59.0,-100.00,ESE,115,12.0,19.0,99,0.00,,,0.00,,2013-05-17 16:07:00,
2013-05-17 11:13:00,59.0,59.0,-100.00,ESE,115,12.0,20.0,99,0.00,,,0.00,,2013-05-17 16:13:00,
2013-05-17 11:26:00,59.0,59.0,-100.00,SE,130,12.0,20.0,99,0.00,,,0.00,,2013-05-17 16:26:00,
2013-05-17 11:37:00,59.0,59.0,-100.00,SE,125,15.0,21.0,99,0.00,,,0.00,,2013-05-17 16:37:00,
2013-05-17 12:18:00,58.0,57.0,-100.00,ESE,115,12.0,17.0,99,0.00,,,0.00,,2013-05-17 17:18:00,
2013-05-17 12:29:00,57.0,57.0,-100.00,ESE,105,13.0,17.0,99,0.00,,,0.00,,2013-05-17 17:29:00,
2013-05-17 12:40:00,58.0,-99.9,-100.00,ESE,120,12.0,17.0,99,0.00,,,0.00,,2013-05-17 17:40:00,
2013-05-17 12:49:00,57.0,57.0,-100.00,ESE,115,12.0,17.0,99,0.00,,,0.00,,2013-05-17 17:49:00,
2013-05-17 13:00:00,57.0,57.0,-100.00,ESE,110,12.0,17.0,99,0.00,,,0.00,,2013-05-17 18:00:00,
2013-05-17 13:50:00,-999.0,-99.9,-100.00,ESE,115,14.0,20.0,99,0.00,,,0.00,,2013-05-17 18:50:00,
2013-05-17 14:20:00,56.0,55.0,-100.00,East,100,14.0,17.0,99,0.00,,,0.00,,2013-05-17 19:20:00,
2013-05-17 14:30:00,56.0,55.0,-100.00,East,100,12.0,17.0,99,0.00,,,0.00,,2013-05-17 19:30:00,
2013-05-17 14:40:00,55.0,55.0,-100.00,ESE,105,12.0,21.0,99,0.00,,,0.00,,2013-05-17 19:40:00,
2013-05-17 14:50:00,56.0,55.0,-100.00,ESE,105,14.0,19.0,99,0.00,,,0.00,,2013-05-17 19:50:00,
2013-05-17 15:00:00,56.0,-99.9,-100.00,ESE,110,14.0,19.0,99,0.00,,,0.00,,2013-05-17 20:00:00,
2013-05-17 15:58:00,57.0,57.0,-100.00,ESE,105,16.0,21.0,99,0.00,,,0.00,,2013-05-17 20:58:00,
2013-05-17 16:07:00,58.0,57.0,-100.00,ESE,105,15.0,23.0,99,0.00,,,0.00,,2013-05-17 21:07:00,
2013-05-17 16:16:00,57.0,57.0,-100.00,ESE,110,19.0,23.0,99,0.00,,,0.00,,2013-05-17 21:16:00,
2013-05-17 16:26:00,58.0,57.0,-100.00,ESE,115,17.0,26.0,99,0.00,,,0.00,,2013-05-17 21:26:00,
2013-05-17 16:39:00,58.0,57.0,-100.00,ESE,105,18.0,24.0,99,0.00,,,0.00,,2013-05-17 21:39:00,
2013-05-17 19:44:00,58.0,57.0,-100.00,East,95,13.0,17.0,99,0.00,,,0.00,,2013-05-18 00:44:00,
2013-05-17 19:54:00,57.0,57.0,-100.00,East,95,12.0,17.0,99,0.00,,,0.00,,2013-05-18 00:54:00,
2013-05-17 20:02:00,57.0,57.0,-100.00,East,90,12.0,19.0,99,0.00,,,0.00,,2013-05-18 01:02:00,
2013-05-17 20:13:00,57.0,57.0,-100.00,East,95,12.0,18.0,99,0.00,,,0.00,,2013-05-18 01:13:00,
2013-05-17 21:31:00,56.0,55.0,-100.00,ESE,110,15.0,22.0,99,0.00,,,0.00,,2013-05-18 02:31:00,
2013-05-17 21:53:00,56.0,55.0,-100.00,East,100,16.0,23.0,99,0.00,,,0.00,,2013-05-18 02:53:00,
2013-05-17 22:12:00,56.0,55.0,-100.00,ESE,105,16.0,22.0,99,0.00,,,0.00,,2013-05-18 03:12:00,
2013-05-17 22:22:00,56.0,55.0,-100.00,ESE,110,16.0,21.0,99,0.00,,,0.00,,2013-05-18 03:22:00,
2013-05-17 22:32:00,56.0,55.0,-100.00,ESE,110,15.0,21.0,99,0.00,,,0.00,,2013-05-18 03:32:00,
2013-05-17 22:43:00,56.0,55.0,-100.00,ESE,110,13.0,20.0,99,0.00,,,0.00,,2013-05-18 03:43:00,
2013-05-17 22:53:00,56.0,55.0,-100.00,ESE,110,13.0,21.0,99,0.00,,,0.00,,2013-05-18 03:53:00,
2013-05-17 23:02:00,56.0,55.0,-100.00,ESE,110,13.0,21.0,99,0.00,,,0.00,,2013-05-18 04:02:00,
2013-05-17 23:12:00,56.0,55.0,-100.00,ESE,115,15.0,21.0,99,0.00,,,0.00,,2013-05-18 04:12:00,
2013-05-17 23:23:00,56.0,55.0,-100.00,ESE,105,11.0,19.0,99,0.00,,,0.00,,2013-05-18 04:23:00,
2013-05-17 23:33:00,56.0,55.0,-100.00,ESE,120,12.0,20.0,99,0.00,,,0.00,,2013-05-18 04:33:00,
2013-05-17 23:42:00,56.0,55.0,-100.00,ESE,110,10.0,17.0,99,0.00,,,0.00,,2013-05-18 04:42:00,
2013-05-17 23:52:00,56.0,55.0,-100.00,SE,125,12.0,16.0,99,0.00,,,0.00,,2013-05-18 04:52:00,